GFSNIL_con_sbcape_000.txt.gz
CAPE
0 0 0 0 0 0 0 0 0 0 0 0 0 0 0 0 0 25 8 0 0 0
0 1 0 0 0 0 0 0 0 0 0 0 0 0 0 4 69 7 0 0 2 0
8 11 0 0 0 0 0 0 0 0 0 0 0 0 0 0 0 0 2 0 46 5
72 14 1 0 0 0 0 0 21 23 4 0 0 0 18 13 0 0 0 25 40 52
236 66 21 16 2 0 0 0 0 0 0 0 0 1 13 49 45 34 45 44 13 39
30 14 26 28 8 0 0 0 0 0 0 0 0 0 7 23 68 68 57 65 24 25
0 0 11 25 9 0 0 0 0 0 0 0 0 0 17 46 124 66 42 18 31 59
5 0 0 9 0 0 0 0 0 0 0 0 0 25 138 148 95 73 52 75 73 68
85 23 12 28 27 11 16 4 0 11 43 13 19 157 63 12 4 1 9 11 2 13
155 83 95 127 72 75 58 16 7 53 8 26 74 60 19 29 0 0 0 0 0 0
323 241 223 156 130 158 209 191 155 56 36 139 50 115 176 14 0 0 0 0 1 0
450 402 273 221 214 288 246 159 58 83 43 39 66 69 134 5 0 0 0 0 0 0
399 362 282 279 383 447 440 227 312 152 105 0 58 10 0 0 0 0 0 0 0 0
523 375 338 437 658 629 269 0 0 9 24 13 0 0 0 0 0 0 0 0 0 0

GFSNIL_con_sbcape_003.txt.gz
CAPE
0 0 0 0 0 0 0 0 0 0 0 0 0 0 0 0 0 0 0 0 0 0
0 0 0 0 0 0 0 0 0 0 0 0 0 0 0 0 0 0 0 0 0 0
0 0 0 0 0 0 0 0 0 0 0 0 0 0 0 0 0 0 0 0 0 0
0 0 0 0 0 0 0 0 0 0 0 0 0 0 0 0 0 0 0 0 10 2
0 0 0 0 0 0 0 0 0 0 0 0 0 0 0 0 0 0 0 11 0 6
45 24 0 0 0 0 0 0 0 0 0 0 0 0 0 0 0 0 10 32 19 11
79 68 28 0 0 0 0 0 0 0 0 0 0 0 0 0 0 13 30 39 23 0
140 51 25 0 0 0 0 0 0 0 0 0 0 0 0 4 49 74 49 28 18 1
113 15 1 0 0 0 0 0 0 0 0 0 0 0 16 44 25 16 0 0 0 0
191 23 0 0 0 1 1 0 0 0 0 0 0 0 2 11 0 0 0 0 0 0
296 143 6 0 0 17 32 1 6 1 0 0 0 0 0 5 0 0 0 0 0 0
226 249 61 7 70 126 12 37 57 42 0 0 0 6 15 10 0 0 0 0 0 0
150 197 86 137 201 232 103 79 73 126 0 0 13 21 0 0 0 0 0 0 0 0
52 102 175 93 20 4 147 76 169 301 164 65 13 5 0 0 0 0 0 0 0 0

GFSNIL_con_sbcape_006.txt.gz
CAPE
334 0 0 0 0 0 0 0 0 0 0 0 0 0 0 0 0 0 0 0 0 0
13 0 0 0 0 0 0 0 0 0 0 0 0 0 0 0 0 0 0 0 0 0
0 0 0 0 0 0 0 0 0 0 0 0 0 0 0 0 0 0 0 0 0 0
0 0 0 0 0 0 0 0 0 0 0 0 0 0 0 0 0 0 0 0 0 24
0 0 0 0 0 0 0 0 0 0 0 0 0 0 0 0 0 0 0 38 34 59
0 2 2 0 0 0 0 0 0 0 0 0 0 0 0 0 0 0 0 27 37 46
13 14 19 0 0 0 0 0 0 0 0 0 0 0 0 0 0 0 0 21 23 18
44 18 3 0 1 0 0 0 0 0 0 0 0 0 0 0 0 0 32 37 19 0
149 101 87 37 1 0 0 0 0 0 0 0 0 0 0 0 0 26 33 10 0 0
173 72 0 0 9 0 0 0 0 0 0 0 0 0 0 0 22 0 0 0 0 0
113 46 0 0 0 4 1 0 0 0 2 0 9 2 0 1 21 0 0 0 0 0
240 73 64 43 0 0 0 0 17 23 16 30 73 31 4 0 0 0 0 0 0 0
455 115 0 4 0 0 0 0 58 16 3 4 4 2 0 0 0 0 0 0 0 0
447 307 26 0 0 0 10 24 46 0 0 30 24 6 0 0 0 0 0 0 0 0

GFSNIL_con_sbcape_012.txt.gz
CAPE
3509 3058 2758 2681 1019 701 304 338 659 1280 434 403 545 623 192 134 139 167 185 218 282 19
3489 3215 2816 2665 2269 1264 920 335 766 718 477 304 611 255 192 102 249 195 252 108 181 189
2961 3222 3134 2890 2516 2063 1078 865 744 664 291 401 329 164 302 134 177 197 28 2 18 150
2715 2845 3153 3158 2857 2293 1603 1191 942 881 359 493 216 199 330 215 39 114 118 37 180 356
2943 2890 2852 3601 2886 2746 1871 1007 1006 819 714 368 248 218 321 142 4 20 17 111 312 424
2770 2801 3175 3108 2759 1537 1297 788 780 718 666 447 320 242 280 332 224 126 83 219 364 412
2930 2897 2805 3006 2392 1016 425 464 156 420 273 257 499 467 269 319 358 153 107 334 485 514
3193 2853 2530 3017 1927 1003 590 529 202 98 166 147 414 209 731 485 180 153 329 426 515 587
3658 3174 2733 2972 1661 735 294 253 18 6 0 5 97 1 10 115 156 279 482 673 727 702
3413 3262 2992 2815 1746 974 532 296 1 0 0 14 17 0 0 0 53 229 503 822 1040 928
3180 3059 2676 2170 1842 1436 699 281 256 40 27 50 64 27 0 0 128 343 718 1053 1059 1114
2957 2824 2516 1917 1166 1139 790 378 125 107 226 181 344 2 0 1 380 400 1090 1107 746 694
3021 2835 2272 1996 1715 946 471 327 124 328 311 412 481 62 0 0 217 1005 279 326 806 4
3172 2776 2426 2280 1501 826 437 354 525 638 806 259 358 473 0 0 367 468 399 527 710 199

GFSNIL_con_sbcape_015.txt.gz
CAPE
4641 2714 2328 2773 1582 771 633 856 2807 1666 1157 463 619 653 628 268 132 508 92 50 72 26
4617 4462 2654 3201 3465 1702 1741 703 1153 1645 1021 616 663 706 777 162 550 269 306 302 293 87
4284 4659 4431 4495 4161 2856 2343 1931 2078 1412 960 705 710 637 581 634 372 330 204 27 124 187
3711 3851 4517 4317 4078 3805 2606 2670 1907 1950 1123 668 926 373 429 512 293 409 545 298 95 156
4009 3961 3808 4364 4249 4189 3441 2714 2356 2032 1410 1112 850 777 660 459 226 198 133 101 646 306
3691 4136 3873 4406 4276 4181 3661 3144 1741 1717 1115 1202 597 401 496 867 888 770 576 513 914 730
3737 3765 3893 4382 4290 4343 4014 3034 1692 1906 1458 1008 351 426 276 586 597 945 776 857 960 859
3741 3980 4128 4119 4437 4395 3657 2711 1965 1760 1415 887 460 265 75 503 571 965 913 783 925 1014
4338 4131 4172 4404 4527 4369 3764 2785 2092 1564 1118 460 153 0 94 533 597 754 1009 1098 1257 1357
4818 4753 4784 4624 4542 4130 3722 2411 1792 1311 737 456 100 0 0 0 247 652 720 866 1444 1223
4835 5073 4932 4553 4347 3739 2676 1743 1703 1306 587 199 250 0 0 0 83 247 303 784 1371 1556
4739 4768 4779 4271 3805 2849 2050 1571 1072 828 521 479 868 0 0 0 0 110 297 530 1286 1518
4452 4606 4203 3782 3163 2827 2245 1420 795 570 353 221 776 5 0 0 330 729 579 627 1408 238
3816 4184 4108 3652 2891 2463 2136 1409 1008 554 659 916 913 659 0 0 175 160 165 169 1019 991

GFSNIL_con_sbcape_021.txt.gz
CAPE
2220 1472 1466 1854 1182 574 603 571 934 1045 290 118 49 564 381 116 131 60 28 56 44 0
2012 2476 2533 1900 1900 706 124 720 788 1129 401 118 121 166 382 170 37 227 50 5 25 6
2474 2195 2419 1876 1788 1455 673 1374 696 1116 577 383 170 192 379 134 252 121 205 105 83 35
3006 2505 2304 2310 1798 1454 1399 954 928 1022 756 310 366 401 423 110 61 339 38 189 98 127
2806 2851 2396 2148 2119 1912 1218 1133 1229 1035 911 444 133 406 444 95 180 82 288 140 52 20
2617 2904 2793 2327 2318 2519 1675 1656 1252 1365 946 570 362 354 520 140 53 115 159 255 136 50
2853 2858 2917 2921 2352 2525 2544 1783 1168 1141 906 573 342 399 365 197 87 117 91 74 200 94
2833 2914 2943 2876 3039 2505 2571 2243 1595 1177 871 598 286 371 173 201 192 172 251 155 143 114
2553 2701 2677 2781 2781 3121 2502 2737 1848 1206 1102 740 477 434 227 244 227 242 316 255 325 233
2456 2558 2593 2650 2695 3063 3059 3013 2680 1928 1199 1008 658 394 97 256 192 317 296 273 399 425
2378 2466 2665 2713 2931 2833 3238 3091 3051 2507 1488 1236 761 442 17 127 76 199 268 429 438 142
2237 2501 2555 2836 2804 3060 3006 3224 3191 2565 1713 1380 400 20 0 0 0 23 54 96 36 0
2089 2354 2737 2914 2955 3090 3232 3259 2712 1762 1326 925 372 0 0 0 0 0 0 11 13 0
2724 2805 3108 3094 3267 3380 2683 1755 1337 1059 718 467 314 0 0 0 0 0 0 0 129 26

GFSNIL_con_sbcape_024.txt.gz
CAPE
983 1053 943 715 928 1121 1024 522 769 671 153 3 0 0 0 0 3 0 0 8 0 0
1503 1277 1131 815 713 780 701 256 514 485 92 6 1 67 69 0 0 17 0 2 0 3
1258 1629 1411 1187 1144 533 181 398 430 507 111 39 0 92 101 22 0 20 37 0 3 0
1615 1297 1693 1878 1329 992 284 245 332 609 219 76 24 0 132 40 61 0 0 55 5 8
1909 1769 1565 1766 1762 1252 741 354 447 489 427 178 85 22 88 60 59 70 8 0 26 6
2335 2202 1878 1639 1718 1417 1213 606 601 529 610 325 149 153 114 127 47 0 13 37 0 1
2314 2590 2327 2001 1738 1751 1592 976 770 681 663 481 171 95 273 240 53 4 1 2 23 4
2154 2371 2624 2381 2037 1801 2101 1541 954 908 761 531 312 168 120 215 99 1 1 16 8 17
2515 2372 2389 2574 2508 2142 1942 2354 1213 878 829 459 391 313 192 218 143 49 32 13 11 32
2651 2637 2607 2554 2589 2682 2279 2033 1742 864 733 502 476 233 101 87 65 65 74 50 23 43
2646 2602 2646 2681 2656 2601 2817 2295 2242 1483 971 897 646 332 4 62 129 126 140 87 81 113
2623 2495 2557 2546 2560 2550 2760 2810 2628 2436 1472 1123 908 252 0 9 60 131 128 179 258 310
2480 2402 2392 2512 2452 2566 2655 2868 2825 2716 1767 1342 1278 0 0 120 36 11 16 27 16 1
2327 2315 2339 2374 2527 2581 2618 2716 2736 2316 1438 1079 543 0 0 9 0 5 0 0 0 0

GFSNIL_con_sbcape_027.txt.gz
CAPE
803 620 552 240 351 605 862 759 847 737 494 16 0 0 0 0 0 0 0 0 0 0
775 697 574 367 354 582 730 778 462 765 452 29 0 0 0 0 0 0 0 0 0 0
833 800 683 464 544 598 583 509 329 540 328 32 0 0 0 0 0 0 0 0 0 0
1037 991 832 734 697 670 334 122 261 435 197 47 0 0 0 0 0 0 0 0 0 0
933 1070 1249 1115 946 855 502 73 110 299 197 78 23 0 26 3 6 0 0 0 0 0
1087 1033 1032 1285 1414 1098 844 210 189 239 330 120 49 6 0 28 3 0 0 0 0 0
1374 1370 1249 1104 1146 1341 1238 612 309 260 398 285 96 41 10 0 0 0 0 0 0 0
1534 1575 1524 1405 1249 1252 1335 1060 622 417 383 366 208 150 103 34 9 0 0 0 0 0
1758 1842 1827 1732 1517 1297 1295 1376 784 673 544 490 408 268 85 176 147 13 0 0 1 3
1688 1792 2036 2077 1902 1635 1457 1534 1050 987 794 590 501 318 61 36 154 44 25 0 40 0
1925 1880 1867 2013 2144 2030 1722 1607 1823 1154 925 822 571 360 23 19 111 31 17 85 56 18
2262 2180 2091 2046 2102 2170 2159 1825 1755 1448 989 871 796 199 3 0 179 100 81 51 41 18
2344 2296 2258 2248 2224 2213 2281 2393 2049 1839 1285 1153 1237 281 8 0 270 207 166 107 95 41
2385 2361 2284 2269 2225 2284 2300 2409 2481 2184 2014 1394 1282 323 0 15 316 322 193 187 5 0

GFSNIL_con_sbcape_030.txt.gz
CAPE
452 437 438 326 403 400 528 663 864 814 690 294 37 9 0 0 0 0 0 0 0 0
464 532 514 355 283 384 498 675 714 819 774 480 64 6 0 0 0 0 0 0 0 0
592 663 616 350 289 385 438 759 620 809 808 559 69 7 0 0 0 0 0 0 0 0
743 753 671 416 434 414 477 551 523 742 775 544 161 5 2 0 0 0 0 0 0 0
824 801 755 602 583 557 465 399 464 555 673 536 266 80 37 21 14 0 0 0 0 0
923 848 842 774 777 664 581 354 356 490 557 431 268 85 99 87 61 11 0 0 0 0
1009 977 1019 1020 981 835 796 422 409 415 577 462 294 196 121 130 110 70 41 11 0 0
900 932 984 1068 1158 1190 1115 829 485 490 533 541 410 278 215 140 120 128 100 103 61 4
1067 1067 1080 1059 1032 1123 1280 1259 742 600 588 604 581 352 132 182 179 138 140 136 94 71
1236 1308 1353 1365 1271 1141 1171 1313 1141 916 784 725 753 263 118 133 330 230 188 204 144 92
1503 1490 1536 1580 1529 1424 1303 1282 1378 1187 1066 957 915 232 87 113 466 421 323 206 176 300
1730 1716 1732 1822 1853 1759 1588 1442 1466 1381 1181 1110 1125 259 77 19 390 332 294 200 213 177
1797 1714 1682 1810 1990 2053 1985 1835 1685 1730 1499 1150 1313 170 6 26 471 336 349 348 215 74
1977 1949 1817 1792 1859 1951 2153 2155 1954 1861 1696 1426 1245 850 0 0 584 535 442 320 280 142

GFSNIL_con_sbcape_033.txt.gz
CAPE
2137 1641 1828 1864 1388 1440 1376 1639 2262 2527 2477 2434 2212 1904 1581 1337 836 523 506 398 311 199
1997 2034 1885 2197 2273 1526 2175 1537 2011 2373 2467 2425 2177 1738 1482 1176 879 473 504 380 398 241
1760 1976 2062 2246 2224 2161 2212 2055 1871 2096 2187 2336 2255 1807 1427 1059 883 543 326 241 401 360
1737 1849 2021 2105 2207 2283 2380 2095 2321 2180 2158 2297 2264 1903 1596 1301 921 627 565 355 416 478
1943 1959 2021 2121 2209 2316 2400 2279 2686 2450 2198 2310 2219 1974 1740 1477 984 831 733 634 480 430
1982 2077 2140 2261 2290 2331 2415 2461 1981 2242 2344 2139 2174 2056 1742 1783 1388 1062 928 775 630 563
2179 2174 2182 2333 2357 2347 2450 2488 2501 2453 2403 2273 2072 2053 1847 1790 1636 1404 1182 956 745 669
2293 2390 2352 2402 2421 2406 2447 2426 2480 2515 2508 2231 2066 1850 1952 1842 1728 1589 1410 1134 877 731
2405 2508 2438 2444 2449 2507 2490 2523 2523 2465 2491 2447 1998 1322 854 1537 1932 1889 1759 1651 1204 1227
2302 2499 2534 2536 2598 2615 2600 2584 2568 2399 2441 2435 2424 736 236 285 1920 1800 2035 2059 1676 1281
2212 2370 2402 2474 2514 2672 2701 2762 2758 2558 2456 2490 2421 444 51 82 1577 2188 2146 1848 1893 1699
2026 2059 2440 2497 2535 2541 2567 2670 2809 2788 2778 2633 2650 342 6 23 1340 2040 1846 1711 1564 1617
2407 2464 2603 2696 2727 2765 2729 2675 2588 2821 2957 2353 2755 353 0 40 1580 1989 1738 1935 1729 525
2830 2791 2771 2976 3018 3064 2828 2783 2711 2878 2983 2905 2503 2325 0 0 1732 2038 1871 1851 1603 1576

GFSNIL_con_sbcape_036.txt.gz
CAPE
3969 2357 2270 2866 2100 1932 1558 1633 1756 2203 2552 2853 2869 3120 3109 2689 2200 1799 1741 1158 549 117
3713 3503 2461 3172 3429 2302 2999 1789 1883 2104 2786 2839 2832 3126 3059 2460 2108 1596 1833 1238 807 306
3106 3752 3632 3737 3725 3344 2940 2994 2264 2324 2621 2768 2826 3051 3054 2506 2211 1878 1518 846 596 596
2858 2913 3191 3492 3773 3840 3234 3654 3013 3097 2547 2445 2625 2952 3123 2813 2219 2029 1811 1040 644 968
3107 3231 3003 3356 3496 3955 3839 3549 3551 3289 3047 2764 2499 2872 3143 2891 2226 2153 1968 1600 1086 885
2681 2778 3342 3721 3588 3725 3905 4026 2811 3334 3979 3141 2825 3141 3140 2918 2753 2414 2172 1856 1591 1208
3113 3265 3287 3587 3712 3792 3949 4064 3886 3941 4077 3663 3116 2876 2960 2848 2821 2784 2419 2187 1856 1508
3338 3573 3566 3603 3831 3849 3990 3917 4033 4079 4075 4083 3164 2380 3445 3390 2880 3192 2812 2439 2177 1759
3580 3804 3786 3821 3947 4116 4075 4023 4122 4080 4136 4066 3048 1729 1393 2706 3248 3512 3288 3301 2743 2425
3840 3946 4072 4067 4156 4165 4118 4112 4183 4141 4188 4183 4087 1634 663 1149 2898 3297 3650 3704 2923 2319
3714 3959 4106 4202 4133 4185 4206 4106 4166 4177 4237 4221 4090 1988 283 382 2832 3519 3842 3579 3356 3411
3663 3345 3581 4190 4235 3907 3630 3882 3796 3602 4297 4312 4162 1650 127 245 2431 2696 3806 3753 3452 3605
3605 3758 3803 4166 4267 4126 3648 3559 3220 3372 4215 3754 4292 1640 37 187 2304 2610 2479 3667 3970 1841
3801 4035 4031 4360 4279 4053 3934 3508 3975 4075 4145 4291 3986 3857 0 0 2573 2666 2861 2630 3029 2969

GFSNIL_con_sbcape_039.txt.gz
CAPE
4215 2671 2460 2814 1687 1520 1296 1233 3030 3982 3649 3722 3632 3206 4154 2968 2649 2978 2112 1784 1558 302
4314 3965 2768 3140 3566 2597 2796 1534 2960 3248 3582 3421 3565 3916 4204 2511 3456 2913 2603 2516 2051 811
4345 4357 3945 3916 3977 3200 3335 3723 3449 3251 3079 3376 3797 3994 4236 3103 3513 3327 2207 1516 2635 1946
4211 4119 4352 4092 4149 4112 4082 4442 3871 4099 3650 3884 3950 4040 4261 3843 3582 3470 3117 2655 2675 2295
4197 4104 4164 4278 4157 4315 4402 4246 4498 4487 4178 4155 3909 4068 4231 3771 2558 3576 3070 2678 2463 1970
4067 4156 4061 4253 4291 4371 4410 4447 4256 4296 4470 4365 4059 4027 4301 4188 3817 3692 3478 3194 2898 2229
4060 4013 4031 4126 4387 4307 4481 4481 4338 4364 4493 4462 4384 4129 4036 4115 4184 3890 3610 3452 3233 2798
4094 4250 4225 4180 4312 4339 4456 4471 4514 4448 4453 4659 4448 3687 4054 3836 4084 4203 3918 3793 3617 3209
4140 4340 4379 4413 4375 4547 4472 4532 4575 4607 4500 4581 4343 2869 2193 3081 3967 4303 4295 4022 4022 3609
4194 4308 4488 4576 4612 4536 4591 4614 4624 4605 4612 4587 4635 2757 1182 1320 3619 4021 4172 4210 4204 3749
4101 4381 4505 4638 4660 4699 4688 4659 4672 4673 4721 4716 4593 3391 600 535 2861 3493 3997 4002 4113 4330
4343 4402 4625 4653 4649 4705 4707 4711 4649 4716 4746 4754 4696 3126 1050 67 2574 3039 3451 3815 4024 4185
4440 4534 4640 4720 4872 4837 4748 4670 4476 4530 4684 4335 4740 3763 934 183 2758 2868 3095 3556 3829 2817
4551 4690 4618 4733 4919 4907 4769 4364 4666 4613 4631 4713 4436 4705 795 0 2798 3017 3045 3175 3333 3721

GFSNIL_con_sbcape_042.txt.gz
CAPE
2940 2833 1641 2592 1732 1281 1730 1898 2998 2677 3271 3000 3276 3288 3871 3898 3326 3406 2823 3152 2211 1539
2495 3152 2289 1855 2735 2677 2099 2552 3632 2957 3179 3008 3373 3122 3840 3104 3534 3657 2961 2606 2875 2000
3274 2928 2760 2410 2809 2339 3304 2694 4148 3391 3187 3372 3395 3562 3547 3485 3448 3331 3125 2398 2387 2130
3565 3267 2972 2684 2913 3488 2859 4182 3152 3883 3436 3395 3351 3352 3774 3062 3066 3499 2891 2607 2482 2120
3600 3834 3562 3055 2945 3210 3788 3239 4178 3766 3488 3312 3224 3452 3317 3301 2368 3213 2974 2435 2474 2376
3788 3779 3832 3694 3145 3264 3188 3812 3138 3932 3867 3240 3304 3304 3461 3227 2952 2166 3182 2945 2323 2112
4005 3917 3908 3856 3924 3372 3617 3243 3698 3540 3501 3703 3405 3360 3275 3392 3481 3115 2663 3268 2888 2403
3640 3998 3909 3912 3998 4079 3725 3803 3531 3664 3858 3619 3650 3483 3337 3259 3394 3437 3059 2951 3138 2814
3523 3648 3995 3870 3862 4007 4165 4014 4123 3917 3615 3820 3683 3325 2832 3010 3306 3416 3409 3188 3072 2977
3672 3868 4002 4030 4024 3938 4126 4152 4174 4180 4054 3743 3819 3160 2017 1843 3230 3293 3404 3402 3253 3099
4110 3949 4121 4145 4106 4164 4088 4218 4173 4213 4185 4024 3828 3297 1451 1019 2694 3132 3226 3338 3378 3247
4176 4076 4159 4243 4182 4177 4253 4214 4324 4266 4266 4247 4115 3043 1562 248 2252 2800 2971 3236 3267 3258
3549 4190 4209 4264 4341 4351 4346 4349 4270 4268 4285 4134 4246 3828 1191 334 2821 2686 2689 2848 3075 2374
4295 3871 4287 4360 4480 4443 4402 4387 4386 4360 4367 4380 4222 4201 1969 5 3089 3255 2820 2678 2680 2757

GFSNIL_con_sbcape_045.txt.gz
CAPE
1648 1065 752 921 810 209 1105 1425 1329 1981 2139 1760 1882 1972 2111 1967 2234 1751 1080 1599 770 62
941 2036 867 364 996 338 715 1057 1607 1810 2306 1886 1924 1838 1821 2484 2012 2098 1541 1280 1532 910
1260 932 1829 681 586 1555 844 736 1753 1867 1860 1951 2036 1981 1886 2401 2369 1912 1891 1380 1437 1450
1939 1493 1344 1674 685 1279 1418 1914 1427 2065 1883 2059 2167 2230 1962 2066 2157 2347 2094 1678 1552 1420
2288 2243 1531 1555 1830 666 1842 1559 2337 2498 2295 2425 2232 2186 2434 2226 2295 1837 2173 1948 1402 1542
2274 2472 2255 1877 1506 1998 1138 2229 1696 2512 2510 2412 2378 2350 2171 2480 2233 1749 2073 1937 1719 1356
2611 2561 2597 2486 2209 1459 2124 1854 2562 1876 2526 2354 2381 2299 2475 2363 2440 2145 1581 2137 1984 1641
2873 2713 2691 2685 2796 2620 1922 2357 2079 2503 2211 2725 2320 2436 2349 2600 2503 2430 2188 1607 2355 2119
2964 3034 2892 2968 2881 2979 2897 2310 2676 2260 2442 2560 2905 2554 2205 2397 2583 2638 2604 2453 1824 2393
2907 3026 3118 3141 3190 3130 3210 3225 2702 2877 2593 2664 2759 2595 1600 1654 2604 2573 2734 2756 2669 2167
2721 2898 3012 3152 3162 3212 3198 3340 3465 3198 3173 3048 2945 2654 1121 963 2457 2681 2600 2777 2805 2751
2690 2827 2990 3049 3247 3232 3220 3203 3321 3521 3427 3406 3352 2353 1310 410 2095 2701 2739 2762 2823 2897
2941 3114 3060 3252 3280 3397 3349 3352 3329 3406 3510 3389 3477 3272 1096 351 2482 2685 2751 2744 2746 2526
3166 3296 3415 3288 3502 3511 3547 3522 3540 3519 3542 3632 3515 3516 2021 179 2487 3002 2972 2813 2684 2610

GFSNIL_con_sbcape_048.txt.gz
CAPE
366 493 289 96 0 0 295 891 902 1493 1461 1243 1404 1271 1308 1197 934 398 590 716 65 10
660 535 582 254 24 0 91 990 955 1332 1787 1322 1334 1365 1403 1381 1555 1340 750 519 803 152
726 1278 775 297 251 839 14 647 1099 1014 1750 1648 1362 1277 1210 1448 1586 1738 1366 980 764 795
695 479 1368 692 98 178 648 144 677 1119 1329 1717 1618 1362 1229 1174 1694 1498 1588 1537 1050 877
1204 873 518 1368 836 381 362 713 578 1124 1301 1576 1664 1565 1443 1362 1612 1854 1624 1650 1454 1171
1547 1493 1168 702 1243 1101 557 587 1063 1585 1537 1684 1667 1784 1774 1576 1527 1636 1752 1724 1501 1478
1650 1902 1830 1465 944 1266 1267 483 1019 1376 1982 1837 1955 1779 1820 1940 1953 1828 1715 1642 1629 1565
1790 1837 2111 2035 1667 1317 1195 1599 889 1134 1500 2138 2103 2110 2046 1928 1905 2051 1914 1548 1796 1690
2120 2064 2049 2227 2239 1875 1663 1162 1634 1683 1648 1776 2284 2271 1781 2048 2102 2033 2014 1865 1477 1679
2174 2396 2353 2321 2354 2480 2360 2060 1441 1721 1905 1820 2061 2162 1315 1248 2097 2162 2124 2060 1957 1753
2503 2512 2669 2583 2555 2551 2625 2724 2554 2062 2074 2255 2047 1977 947 592 1846 2158 2170 2294 2287 2253
2350 2755 2799 2857 2850 2817 2908 2850 2909 2969 2696 2397 2580 2131 1051 183 1472 2189 2446 2385 2319 2472
1860 2541 2818 2911 2885 3037 3007 3054 3027 3044 3188 3096 2873 2671 1073 185 1953 2198 2387 2605 2655 2099
1686 1935 2492 2662 2831 2835 3007 3012 2959 2983 2973 3080 3014 3046 1157 49 2264 2607 2698 2668 2658 2696

GFSNIL_con_sbcape_051.txt.gz
CAPE
2 0 3 0 0 0 4 165 572 919 981 824 779 719 489 454 554 149 422 119 0 0
92 70 36 0 0 0 0 192 350 557 1077 1056 1088 923 867 825 917 565 59 322 193 0
247 208 169 19 0 0 0 48 555 661 920 1087 1079 1088 961 978 982 1049 711 281 228 356
386 333 308 208 84 75 8 0 349 587 957 1319 1123 1053 951 998 1146 1167 1298 1082 650 512
496 629 746 481 120 65 207 46 33 547 778 1113 1349 1211 1069 987 1122 1291 1225 1314 1251 1074
516 384 461 1095 1008 238 17 39 304 198 812 957 1235 1288 1190 1209 1080 1119 1393 1407 1326 1481
856 794 543 378 728 1103 637 276 259 579 652 931 1145 1341 1408 1367 1247 1182 1263 1444 1517 1556
945 1070 1089 930 553 557 1069 1001 641 616 889 1247 1311 1417 1450 1547 1488 1351 1297 1321 1357 1499
967 1186 1404 1389 1294 861 673 1103 1100 625 744 1159 1555 1732 1420 1538 1600 1607 1609 1538 1379 1472
1268 1268 1461 1720 1754 1592 1245 1009 1072 1274 1060 891 1259 1510 1115 949 1798 1708 1666 1666 1642 1576
1662 1720 1673 1695 1912 1989 1884 1630 1401 1100 1206 1399 1338 1468 557 487 1531 1948 1924 1828 1783 1779
1909 1900 2055 2075 1996 2124 2208 2261 2139 1939 1446 1327 1584 1167 583 81 1284 1773 2002 2021 1945 2009
1960 2156 2167 2355 2384 2304 2372 2375 2461 2530 2470 2140 1868 1820 270 0 1423 1657 1865 2059 2156 1795
2063 2212 2433 2471 2521 2623 2592 2622 2660 2677 2683 2785 2508 2471 740 1 1518 1973 2131 2155 2278 2372

GFSNIL_con_sbcape_054.txt.gz
CAPE
0 0 0 0 0 0 0 120 626 736 928 939 857 709 690 482 668 437 205 22 0 0
0 0 0 0 0 0 0 48 233 673 1002 965 915 872 793 682 724 741 505 703 457 49
19 0 0 0 0 0 0 19 270 399 801 1069 1086 1115 978 1018 949 972 805 428 461 560
112 77 54 0 0 0 0 0 135 412 583 794 975 1098 1149 1249 1266 1226 1319 1091 799 732
198 193 141 94 16 0 0 0 0 284 506 872 1144 1147 1204 1319 1457 1412 1441 1534 1484 1456
266 280 249 210 160 99 109 61 0 68 380 603 1051 1331 1287 1361 1350 1414 1563 1555 1576 1672
377 397 450 455 437 134 90 183 244 140 398 636 890 1252 1450 1490 1483 1367 1394 1549 1586 1639
461 424 429 571 895 919 324 188 191 274 400 540 890 1134 1426 1540 1542 1532 1482 1466 1554 1687
626 619 563 435 393 635 1034 923 676 465 506 677 756 703 698 1175 1620 1644 1578 1549 1542 1627
624 856 883 906 834 571 512 851 1049 955 816 821 1018 902 432 430 1446 1701 1769 1792 1787 1746
842 884 1060 1237 1250 1221 1009 727 807 1071 1096 865 847 728 182 80 1179 1608 1782 1838 1899 1951
1107 1126 1205 1381 1560 1619 1621 1478 1274 1143 1185 1319 1349 491 95 9 1099 1619 1847 2028 2091 2097
1434 1533 1568 1530 1588 1811 1935 2004 1972 1860 1707 1212 1398 1156 41 0 1100 1430 1682 1971 2118 1584
1805 1800 1857 1923 2004 1997 2093 2205 2311 2403 2398 2245 1548 1679 459 0 1106 1628 1829 1907 2083 2255

GFSNIL_con_sbcape_057.txt.gz
CAPE
1550 747 680 1138 652 619 491 803 1524 2092 2212 2340 2448 2402 2337 2155 2121 2098 1665 1420 762 252
1394 1330 944 1375 1117 672 1060 450 1069 1606 1933 2130 2297 2512 2498 2199 2246 2225 2286 1961 2004 1318
1243 1324 1333 1270 1345 1305 860 759 641 1375 1719 1971 2158 2429 2555 2167 2373 2407 2149 2016 2272 2413
1063 924 999 1016 1165 1526 1045 1067 1197 1496 1635 1855 2018 2214 2527 2476 2354 2600 2618 2460 2302 2349
1104 1139 844 1186 1098 1373 1592 1097 1191 1434 1691 1777 1797 1947 2194 2147 1806 2314 2660 2755 2703 2474
953 992 1373 1331 1283 1368 1447 1430 996 1167 1563 1571 1689 1895 2073 2146 2200 2292 2470 2740 2915 2891
1300 1357 1328 1605 1644 1327 1606 1535 1424 1391 1531 1526 1616 1720 1894 2065 2231 2377 2424 2620 2746 2844
1473 1528 1648 1748 1775 1538 1698 1759 1882 1498 1373 1478 1382 1237 1851 1912 2136 2409 2552 2576 2749 2781
1709 1774 1818 1913 1846 2027 1800 1670 1663 1658 1754 1651 1278 651 630 1486 1932 2473 2653 2672 2707 2684
1900 1894 1953 1999 2163 2304 2299 1732 1802 1672 1752 2030 2275 858 197 232 1651 2134 2628 2749 2661 2613
1985 1984 2046 2085 2090 2143 2079 2483 2311 2164 2349 2214 2231 1222 82 0 1164 2237 2654 2822 2928 3235
1954 2103 2218 2281 2316 2273 1949 2009 2018 2040 2248 2426 2546 1009 137 0 1431 1966 2646 2767 2891 3044
1998 2113 2302 2476 2624 2679 2421 2105 1914 1905 2205 1955 2659 1817 39 0 1411 2102 1973 2781 3115 1938
2358 2451 2529 2722 2875 2630 2683 2766 2761 2557 2745 2514 2167 2376 479 0 1571 1909 2195 2224 2267 2418

GFSNIL_con_sbcape_060.txt.gz
CAPE
2322 1142 1294 1468 1103 974 725 735 1104 2303 2370 2586 2509 2699 2614 2128 2064 2064 2080 1981 1613 583
2427 2134 1335 2353 1543 1077 1803 739 910 1338 2173 2104 2284 2559 2537 2290 2542 2365 2291 2328 2149 1709
1636 2104 2122 1755 2180 1843 1262 1400 999 1244 1530 1551 1789 2377 2766 2317 2618 2904 2491 2010 2328 2618
1546 1472 1681 1584 1723 1932 1711 1580 1820 1402 1297 1303 1914 2300 2703 2569 2137 2793 3021 2751 2377 2594
1841 1859 1381 1744 1788 1908 1987 1833 1958 1849 1660 1297 1505 2058 2592 2530 1872 2350 2569 2800 2811 2814
1564 1501 1914 2006 1870 2266 2038 2168 1888 1925 1980 1767 1523 1951 2349 2482 2341 2194 2274 2536 2842 2919
1831 1840 1674 2417 2460 1957 2465 2369 2166 2177 2067 2014 1683 1422 1807 2056 2313 2222 2187 2532 2752 3004
2467 2327 2412 2668 2806 2564 2624 2288 2361 2351 2163 2104 1840 1165 1685 1682 1792 2212 2357 2436 2799 2993
2922 2912 2964 3090 3126 3313 3141 2684 2503 2369 2377 2180 1777 849 489 896 1466 1933 2252 2562 2784 2941
3175 3271 3262 3268 3475 3478 3413 2996 2839 2635 2579 2740 2859 1238 317 181 1214 1371 2350 3128 2854 2449
3304 3300 3403 3521 3649 3696 3242 3289 3285 2694 3134 3270 2974 1682 785 0 1465 2159 2642 2766 2802 3612
3349 3271 3256 3368 3518 3388 3049 3258 3207 2752 3162 3444 3167 1308 811 29 1648 1938 2902 2655 3113 3329
3376 3475 3439 3482 3628 3557 2818 2796 2678 2732 3173 2647 3451 2480 185 120 1887 2316 1939 3142 3757 2190
3112 3539 3553 3873 3703 3421 3176 3195 3445 3086 3467 3574 2985 3050 469 0 2201 1922 1992 1938 1785 2008

GFSNIL_con_sbcape_063.txt.gz
CAPE
2587 910 862 1890 976 692 473 618 3491 2531 2132 2362 2640 2133 2752 2101 2014 3218 1932 2047 2711 1225
2495 1759 856 2192 2675 1570 1942 807 818 1584 2183 2076 2168 2678 3285 2022 3148 2199 2507 2687 2588 1835
2546 2549 2398 2884 3391 2365 2440 2675 1456 2001 1619 2127 2492 2451 3734 2844 3209 2895 2399 1701 3303 3085
2374 1997 2461 2948 3126 3050 2813 3270 3045 2695 2336 2014 2151 2740 3717 3695 2793 3332 3375 3212 2437 3249
2829 2228 2183 2633 2739 3382 3453 3186 3430 3050 2957 2361 2089 2940 3612 2884 2564 2553 2766 3066 3721 2680
2596 2636 2271 2904 2757 3225 3552 3636 2357 3092 3547 2952 2454 2921 3469 3792 3286 3022 3155 3146 3463 3483
2512 2525 2381 2803 3143 3140 3574 3705 3553 3687 3630 3261 2712 2585 2552 3054 3430 3476 2844 3149 3230 3505
2682 2682 2793 2635 3211 3216 3587 3644 3871 3898 3744 3616 2666 1862 2629 2903 3215 3641 3211 3205 3098 3271
2877 2991 2966 2926 3171 3576 3711 3862 3991 3898 3944 3718 2155 1285 869 1752 2433 2975 3306 3593 3768 3673
2977 3089 3134 3117 3396 3647 3905 4090 4245 4108 4078 4103 3862 1475 434 220 1734 2498 3003 3382 3851 3328
3355 3442 3568 3627 3617 3882 4051 4100 4183 4241 4245 4290 3949 2367 730 0 2007 2121 2503 3228 3531 3797
3538 3676 3904 3877 3975 4074 4171 4199 4143 4264 4390 4410 4212 1920 1252 18 2134 2196 2957 3025 2977 3250
3782 4032 4086 4116 4189 4261 4320 4236 3400 3860 4291 3913 4473 3289 491 162 2085 2514 2251 3301 3587 2547
4066 4186 4309 4426 4472 4473 4384 3629 4321 4233 4252 4306 3938 4251 1463 0 2720 2245 2185 2188 2017 2265

GFSNIL_con_sbcape_069.txt.gz
CAPE
883 187 498 1102 880 1143 1339 1096 1200 1686 1103 1448 1470 1623 1465 1210 1559 1693 1787 1392 1685 1726
1003 212 385 680 1087 991 550 1032 1127 1907 1373 1700 1754 1713 1639 1298 1224 1631 1729 1848 1488 1895
353 909 382 419 764 1162 433 1114 1364 1960 1763 2107 1544 1434 1736 1074 1409 1273 1313 1051 1611 1387
17 734 712 347 206 953 927 1331 2042 1938 2037 2067 2116 1653 1745 1173 1547 1269 1330 1308 1686 1884
138 242 604 544 175 511 772 878 1822 1987 2051 1812 1618 1918 2002 1373 1527 1819 1400 1564 1811 1929
832 97 374 280 493 139 1512 616 1123 1705 1787 1642 1801 1670 1828 2089 1631 1573 1619 1496 1793 1977
970 954 167 182 29 932 943 1829 1700 1858 1638 1926 1557 1531 1677 1833 2031 1992 1893 2078 1984 2198
1151 1071 1122 586 328 13 1194 910 1222 1656 1927 1806 1933 1747 1513 1662 2047 2095 2107 1951 1975 2199
1399 1269 1222 1163 976 164 318 1543 1066 1095 1654 1963 2090 2047 1730 1432 1523 2158 2155 2207 2154 2268
1556 1505 1344 1326 1079 1054 393 496 1309 1719 1786 1784 2027 1963 1522 1064 1237 1097 1954 2111 2057 1987
1563 1527 1469 1428 1333 1223 1267 962 989 1251 1748 1949 1974 2144 1020 443 874 1148 1116 1822 2074 2008
1501 1537 1560 1339 1471 1358 1462 1557 1294 1604 1816 2005 2088 2031 1531 13 19 812 1155 1233 1341 1606
1341 1592 1426 1567 1427 1625 1328 1322 1686 1539 1785 2034 2106 2066 937 76 1063 401 622 842 1033 1529
1418 1525 1558 1542 1601 1503 1610 1447 1381 1743 1735 1950 2049 2309 1460 7 1680 1592 1074 913 993 1199

GFSNIL_con_sbcape_072.txt.gz
CAPE
37 30 153 449 584 809 1048 1332 1286 1506 984 947 840 851 833 795 996 1298 1083 1176 1004 1231
496 148 55 466 680 776 695 818 901 1377 886 1061 1020 1004 918 701 720 1166 1085 1230 740 1016
88 553 25 166 402 776 552 686 785 1512 900 800 1134 1000 962 840 729 853 779 960 933 843
9 101 380 40 136 360 411 509 815 1352 1111 1020 1242 952 1149 837 675 929 778 661 674 795
0 4 431 373 94 162 460 518 1291 1401 1408 1373 1476 943 978 882 954 966 970 841 897 1118
34 0 87 469 372 3 354 417 1352 1404 1562 1531 1522 1511 1245 1028 860 1005 1279 1013 920 1127
535 104 0 157 265 319 0 283 477 1415 1428 1376 1313 1236 1357 1469 1240 955 1012 1147 986 1079
730 677 164 0 142 32 310 249 644 727 1317 1363 1304 1271 1106 1150 1204 1312 1323 1302 1462 1482
548 837 774 264 11 29 5 497 592 1146 1078 1285 1423 1387 1049 1071 1183 1266 1328 1355 1356 1404
1032 844 856 928 432 213 68 0 601 574 1114 1292 1536 1510 1002 830 1014 1125 1454 1478 1454 1479
1438 1300 1104 997 1092 797 534 36 63 982 665 770 1170 1503 903 479 929 971 759 1249 1658 1634
1627 1589 1397 1241 1166 1123 977 656 185 248 1215 1312 1167 1052 901 48 797 1106 1016 685 871 1369
521 1436 1570 1498 1364 1307 1126 1091 913 644 476 695 1177 1366 547 0 1017 799 832 830 686 706
154 1242 1506 1571 1460 1432 1389 1216 1250 1185 1011 1123 1202 1378 586 0 1166 1383 915 608 606 603

GFSNIL_con_sbcape_075.txt.gz
CAPE
0 18 21 151 236 525 745 882 944 1017 966 766 512 662 450 630 664 819 490 720 964 881
0 0 0 97 200 443 494 913 952 1247 1157 925 782 655 631 718 728 813 842 828 602 583
112 46 0 0 313 420 442 425 731 1272 1134 825 941 721 732 700 530 628 690 807 891 669
54 103 76 0 20 113 454 381 482 965 1199 700 888 889 772 694 599 700 683 378 497 514
0 0 90 62 0 0 60 193 442 600 1100 935 875 903 827 894 1014 673 674 789 529 631
0 0 0 71 100 0 0 46 321 806 1026 1030 1026 1039 860 844 811 730 786 885 871 772
21 0 0 0 22 101 0 28 194 883 1066 1166 1155 1216 1195 988 909 755 765 925 1021 984
205 21 0 0 0 0 26 4 26 320 1038 1022 1152 1239 1245 1368 1351 1234 985 855 915 929
262 264 25 0 0 0 0 17 0 66 259 952 1193 1240 1132 1132 1205 1063 1106 1063 912 1043
237 351 420 146 0 0 0 0 0 65 326 362 726 1196 825 439 985 938 942 955 1002 898
622 342 496 595 301 0 0 0 0 0 54 485 566 791 440 96 661 825 798 899 998 1042
923 938 649 686 707 619 175 3 0 0 0 34 208 591 409 0 376 801 901 721 642 1011
357 1223 1399 1071 852 839 792 571 380 103 0 87 322 162 0 0 921 1011 1085 1126 867 442
0 118 406 1074 1319 1148 937 975 823 652 366 57 294 781 4 0 547 785 891 916 886 770

GFSNIL_con_sbcape_078.txt.gz
CAPE
0 0 4 71 81 201 403 652 808 938 812 649 655 599 352 508 601 630 723 859 1183 1137
0 0 0 30 90 239 399 690 834 1058 1081 630 403 627 699 697 521 942 1103 958 942 860
0 0 0 0 78 254 434 456 916 1143 1305 955 631 460 630 727 696 764 817 937 1074 1041
22 0 0 0 41 302 424 429 534 953 1290 1175 641 641 634 654 877 797 852 695 828 968
37 35 0 0 0 3 259 354 546 601 1036 1168 989 840 1059 719 1092 889 887 974 860 895
5 0 83 60 0 0 35 102 252 556 771 1062 1110 1039 1077 987 1101 1078 1001 957 966 1140
0 0 0 30 48 0 0 31 86 414 752 1015 1103 1141 1183 1087 1075 1019 982 1053 1081 1249
2 0 0 0 0 0 0 0 47 206 621 1009 1197 1123 1279 1257 1178 1150 1098 1063 1067 1180
147 54 0 0 0 0 0 0 0 46 366 821 1078 1098 963 1062 1406 1437 1463 1495 1421 1379
278 274 189 1 0 0 0 0 0 6 50 334 687 844 771 367 1312 1376 1392 1492 1517 1225
276 313 346 302 20 0 0 0 4 22 57 115 190 235 169 134 785 1175 1183 1131 1170 1230
656 450 374 447 518 188 0 0 0 0 3 119 189 0 0 0 595 894 1158 1079 1069 1150
5 182 642 447 485 506 462 165 6 2 2 0 54 16 0 0 239 336 589 967 1080 321
2 3 83 343 993 688 795 612 544 308 229 64 0 57 0 0 312 508 499 687 737 1172

GFSNIL_con_sbcape_081.txt.gz
CAPE
1217 1095 1172 1557 1216 1354 1470 1612 1987 2522 2450 2339 2139 2028 1966 1835 1811 1925 2055 2190 2225 1874
1076 1036 1187 1311 1588 1362 1741 1452 1941 2109 2205 2316 2269 2148 2103 1676 1990 2180 2184 2012 2221 2049
698 882 1058 1146 1492 1493 1622 1848 1731 2085 2257 2203 2351 2236 2208 1876 2002 2285 2052 2054 2395 2398
768 609 745 799 1067 1444 1602 1884 2091 2236 2320 2415 2293 2463 2482 2314 1998 2211 2222 2208 2305 2262
1042 805 582 689 807 1163 1490 1665 1958 2238 2318 2408 2436 2509 2451 2371 1910 2235 2181 2130 2160 2103
600 778 804 775 769 814 1017 1368 1449 1894 2226 2439 2441 2450 2482 2576 2392 2419 2299 1993 2200 2180
590 573 684 1189 1071 868 912 1086 1129 1508 1688 1947 2437 2459 2375 2437 2546 2488 2380 2269 2136 2176
943 934 697 547 1142 1071 1025 998 1114 1374 1345 1617 1699 1814 2361 2440 2486 2478 2459 2328 2274 2176
804 929 1064 871 719 1322 1190 1049 1120 1028 1195 1373 1094 607 982 1836 2301 2409 2433 2478 2448 2353
881 865 930 861 995 1216 1084 1023 1039 1005 1065 1535 1721 698 324 419 1700 2187 2472 2556 2566 2375
902 915 1010 973 876 1036 774 917 1118 954 1160 1306 1197 580 43 0 1391 2131 2301 2372 2533 2664
21 745 987 1091 1063 938 770 714 711 714 950 1073 1356 198 0 0 1005 1307 2343 2415 2329 2388
8 9 28 999 1347 1318 1266 926 778 651 877 572 1298 581 0 0 370 883 936 1661 2401 1310
9 9 5 62 205 1164 1535 1616 1496 1043 1079 1123 872 863 23 0 461 721 892 824 847 766

GFSNIL_con_sbcape_084.txt.gz
CAPE
2063 1715 1656 1329 788 1247 1305 1506 1626 2663 2104 1894 1933 2234 2245 1585 1472 1682 1611 1971 2189 1168
2070 1980 1322 1127 1425 1246 1259 1300 1971 2297 1599 1787 2035 2367 2503 1708 2177 2078 2102 1870 2193 2039
1825 1996 1864 1580 1522 1477 983 1656 1638 2403 2425 1880 2294 2405 2515 1906 2233 2104 1580 1531 1881 2334
1514 1598 1770 1598 1520 1532 1542 1739 2332 2396 2472 2033 2229 2530 2730 2132 1943 1937 1892 2004 2220 2482
1582 1540 1423 1554 1349 1382 1636 1609 2109 2439 2567 2383 2110 2454 2727 2255 1510 2164 2178 2044 2231 2337
1398 1490 1418 1298 1433 1395 1519 1652 1631 1984 2375 2321 2020 2421 2967 2633 2392 2371 2180 2278 2343 2220
1061 1097 1122 1293 1297 1376 1564 1570 1429 1660 1898 2171 2186 1838 2315 2701 2787 2558 2655 2688 2564 2322
1331 1251 1154 1542 1216 1246 1498 1603 1621 1494 1464 1668 1800 1892 2065 2201 2699 2915 2891 2757 2838 2615
1304 1375 1504 1577 1473 1256 1512 1697 1748 1720 1491 1285 806 588 865 1692 2776 2421 2925 2729 2821 2824
1433 1523 1589 1483 1643 1715 1518 1438 1929 1773 1702 1909 1870 396 79 562 1455 1747 2421 2695 2511 2373
256 896 1439 1678 1887 1655 1614 1639 1640 1689 1973 2022 1938 881 204 0 1252 1892 2444 2472 2365 2853
5 10 212 1428 1593 1846 1811 1987 1602 1569 1711 2079 2043 941 219 0 1016 1043 1986 2403 2823 3103
7 15 5 211 1082 1936 2677 1651 1544 1535 1665 1380 1871 1353 247 0 917 985 799 1513 2643 1722
0 4 10 8 79 899 1797 2089 2425 2171 2029 2056 1666 1677 244 0 988 970 985 860 686 648

GFSNIL_con_sbcape_087.txt.gz
CAPE
2391 1794 1265 1513 2281 1022 2560 1291 3519 2610 2217 2072 1970 1930 2168 1978 1538 2477 1710 2067 3120 2492
2870 2569 1800 2470 1889 1518 1698 1512 1744 1854 1967 1982 2042 2142 2306 2037 2013 2221 2039 2202 2153 2075
2182 2402 2225 1538 1835 1656 1871 1266 1075 2001 2088 2038 1993 2000 2372 2935 2782 2012 1965 1346 3374 3042
2068 2120 2309 2009 1796 1818 1618 1711 1748 2711 2080 2436 2322 2383 2845 3275 2325 2346 2269 2612 2182 2803
1873 2029 1947 2200 2013 2244 2248 1791 2101 1966 2271 2211 2301 2887 2788 2234 1710 1885 2040 1990 2333 2103
1949 1902 1867 2126 2048 2248 2209 2270 1505 2070 2946 2137 2234 2833 2635 2670 2603 2093 2205 2162 2572 2300
1859 1965 1959 2462 2249 1905 2649 2371 2179 2407 2891 2760 2378 2260 2256 2588 2910 3014 2648 2658 2689 2596
1753 1811 1793 1862 1980 1834 2690 2618 2447 2644 2534 2715 1970 1756 2819 2769 2720 3230 2857 3371 3101 3096
1407 1761 2281 2110 1908 1967 1802 2746 3401 2879 2729 2617 1247 527 666 1822 2565 3092 3122 3102 3387 3814
38 118 359 1641 2430 2670 2787 2417 3190 3334 3014 3187 3091 1166 7 410 1545 2483 3183 3448 3387 3319
2 7 14 223 1657 2391 2439 2446 3021 2691 3305 3465 3046 1664 682 0 1561 2052 2549 2905 3579 3618
0 1 4 10 19 926 2151 2722 2293 2487 2768 3214 3314 1897 677 4 1307 1198 1899 2368 2672 3012
4 1 0 0 3 9 430 1774 2695 2271 2534 2235 2991 2268 1490 1 1366 1745 1511 2117 2244 1243
3 0 0 0 1 3 5 216 1438 2229 2877 2637 2279 2636 1166 94 1860 1558 1607 1627 1614 1677

GFSNIL_con_sbcape_093.txt.gz
CAPE
750 525 343 640 328 712 526 731 1307 1419 1624 1424 1507 1361 1587 1133 1584 1229 1400 1199 1510 1789
1031 858 981 958 1227 656 844 1612 1889 1539 1780 1765 1461 1236 1570 1437 1717 1234 1268 1097 1701 1517
1368 1100 1169 1458 1507 899 685 821 798 932 1282 1526 1631 1281 1451 1272 1244 1383 1463 1564 1114 1528
1770 1659 1564 1535 1747 1366 359 640 348 193 145 473 1137 1521 1352 1306 1039 887 1218 1343 1598 1126
1901 1820 1740 1794 2061 1417 889 644 276 0 0 0 800 1623 1672 1407 1459 1009 1031 1262 1439 1241
1914 2003 1780 1829 2035 2098 1834 1038 714 617 105 878 1281 1716 1407 1326 1305 1416 1188 1436 1523 1614
155 405 1249 2123 2117 2367 2286 2099 1743 1644 1471 1916 1794 1645 1921 1409 1193 1369 1404 1785 1890 1745
82 221 138 243 1451 1915 2087 2333 1996 1626 1721 2190 1799 1606 1879 1846 1742 1385 1290 1463 1668 1894
9 5 17 91 187 1315 1508 1559 1823 2043 2012 1835 1925 1875 1546 1699 1633 2080 1600 1442 1661 1914
3 0 0 3 53 100 143 999 1457 1449 1295 1643 1947 1749 1315 158 421 1521 1705 1908 1661 1608
0 0 0 0 0 0 0 83 226 836 1488 1454 1524 1744 1605 1205 25 173 540 1371 2022 1777
0 0 0 0 0 0 0 0 30 230 485 1280 1255 1510 1486 819 357 305 562 656 948 1645
0 0 0 0 0 0 0 0 0 0 119 435 1065 1092 1115 399 206 915 891 1038 830 711
0 0 0 0 0 0 0 0 0 0 7 257 599 195 2 1 16 675 1127 1230 1261 1139

GFSNIL_con_sbcape_096.txt.gz
CAPE
340 288 330 299 261 499 698 899 772 1072 1086 1064 933 875 1069 867 1157 968 953 875 861 955
535 518 307 316 357 126 447 674 993 1117 1298 1154 1247 987 1222 1136 1368 1176 786 485 1136 1132
674 480 505 444 691 940 663 1039 1240 1233 1282 1453 1385 1130 1181 1116 900 977 918 1101 933 782
1108 878 558 827 941 645 548 589 699 755 972 1114 1345 1285 899 916 1017 867 1012 911 1126 1163
751 967 1143 1127 1090 772 497 399 349 259 233 281 507 877 1256 1009 1194 866 634 812 823 1024
217 781 940 1203 1284 899 340 306 203 23 0 0 3 646 1160 1264 1215 1225 1114 645 845 1136
125 104 117 302 669 934 990 588 499 358 229 70 435 844 1208 1265 923 843 1066 1082 1234 1195
41 57 2 38 104 325 885 1184 1295 1168 1176 1163 1401 1489 1274 1424 1386 945 829 877 971 1262
5 0 17 15 31 64 106 597 1146 1446 1213 1120 1414 1991 1545 1295 1296 1447 1266 1070 967 1014
1 0 0 1 0 0 2 14 98 672 1101 1105 1211 1502 1040 783 366 805 1174 1332 1221 1129
3 1 0 0 0 0 0 1 0 19 191 521 1076 1253 972 354 73 104 146 543 1051 1274
0 0 0 0 0 0 0 0 0 0 9 97 249 411 96 1 485 485 389 320 337 593
0 0 0 0 0 0 0 0 0 0 0 0 52 1 0 1 93 382 511 615 585 523
0 0 0 0 0 0 0 0 0 0 0 12 0 0 1 1 0 2 51 433 715 364

GFSNIL_con_sbcape_102.txt.gz
CAPE
0 0 10 93 117 329 414 612 701 725 817 614 431 160 158 824 1049 956 967 935 866 1151
42 54 36 88 115 304 333 487 671 615 808 704 737 491 946 877 858 1076 864 820 714 1151
125 125 168 145 169 98 108 213 447 321 650 611 908 878 815 1073 895 913 841 787 938 814
167 188 223 238 208 283 477 398 476 601 745 965 912 970 904 760 985 961 850 727 961 1091
298 398 231 311 267 391 677 467 353 523 786 933 854 1075 1054 1007 826 964 913 873 663 825
0 0 59 129 256 425 559 517 212 239 476 543 558 638 576 845 1000 682 694 697 683 763
0 0 0 0 0 44 311 662 288 243 179 28 35 51 189 545 910 1103 978 749 781 709
35 6 0 0 0 0 3 54 410 442 369 267 76 40 92 205 613 1082 1137 953 890 1016
2 5 0 0 0 0 0 0 0 63 403 527 665 701 24 51 967 1207 1286 1446 1516 1235
5 3 2 0 0 0 0 0 0 0 37 92 288 1 1 1 97 699 1078 1142 1289 1335
5 1 1 0 0 0 0 0 0 0 0 7 71 1 1 1 88 210 272 166 242 371
0 0 0 0 0 0 0 0 0 0 1 76 1 1 1 0 95 60 80 213 165 51
0 0 0 0 0 0 0 0 0 27 8 4 7 0 0 0 0 0 0 0 0 0
0 0 0 0 0 0 0 0 0 0 0 0 0 0 0 0 0 0 0 0 0 2

GFSNIL_con_sbcape_105.txt.gz
CAPE
1047 992 879 972 1044 1237 1525 1914 1817 2099 2081 1627 1688 1522 1587 1893 2130 2138 2020 2254 2228 1805
905 876 921 1128 1191 1226 1480 1268 1606 1849 1947 1818 1863 1609 1497 1814 2102 2287 2207 1991 2071 1967
1102 1056 1092 1067 1211 1304 1328 1558 1505 1665 1820 1997 2013 2033 2030 2267 2379 2386 2062 1781 2072 2376
1204 1148 1255 1199 1134 1264 1294 1386 1252 1509 1490 1679 1988 2001 2290 2161 2198 2289 2320 2012 2134 2140
913 1088 1165 1255 1225 1119 1218 1565 1663 1717 1808 1953 1835 1966 2298 2089 1975 2141 2013 1961 1990 2009
1033 1168 1337 1263 1335 1591 1511 1691 1594 1351 1602 1682 1882 1993 2130 2144 2124 2088 2000 1948 1860 1739
591 625 532 582 700 1052 1416 1654 1548 1394 1256 1309 1132 1042 1087 1284 1380 1622 1517 1987 1968 1916
33 183 199 234 229 419 760 1017 1426 1620 1473 1196 887 760 924 1002 1177 1177 1729 1862 1875 2009
56 155 87 98 67 123 242 344 711 1031 1263 1268 960 0 1 231 1806 1994 2231 2181 2389 2225
3 2 2 22 19 12 78 133 191 295 502 513 118 0 0 0 1465 1668 1748 1814 1893 1813
3 3 2 0 0 0 0 7 121 263 322 7 0 0 0 1 1091 1226 799 704 695 753
0 0 0 0 0 0 0 0 110 143 8 0 0 0 0 0 1 0 0 2 1 1
0 0 0 0 0 0 3 2 0 0 0 0 0 0 0 0 0 0 0 0 0 0
0 0 0 0 0 0 0 0 0 0 0 0 0 0 0 0 0 0 0 0 0 0

GFSNIL_con_sbcape_108.txt.gz
CAPE
1366 793 1567 1317 1157 1028 2325 1119 1469 1505 1241 1563 2046 1943 2182 1974 1804 1672 1850 2193 2516 1718
1337 927 1995 1014 1975 1381 1545 1458 1603 1493 1491 1660 1581 2016 2047 1540 1811 1987 2220 1634 1987 2058
889 1283 1091 965 726 1328 1625 1831 1596 1479 1463 1679 2060 2206 1967 1598 1584 1882 1670 1497 1818 1932
894 711 1273 1247 908 1005 1358 2115 1459 1455 1513 1330 1612 2028 2160 1861 1477 1744 1836 1726 1920 1852
924 776 635 1001 817 1082 992 1595 1336 1360 1745 1481 1559 1825 1873 1692 1395 1737 1688 1665 1718 1707
1174 688 806 855 1127 1051 1150 1030 1202 1445 1272 1104 1323 1404 1417 1605 1559 1596 1352 1267 1398 1589
1143 653 960 1050 1298 1097 996 1215 1087 1059 1257 1142 1476 1276 1411 1346 1285 1350 1328 1406 1351 1428
1056 1233 1103 1216 1201 1269 1452 1393 1394 1186 1299 1431 1427 1072 1717 1710 1708 1835 1631 1694 1678 1440
120 107 521 683 713 836 978 1193 1536 1548 1416 1337 1026 1 0 135 2071 1831 1815 1751 1761 1653
23 3 4 37 198 486 587 654 759 1081 1118 265 98 0 0 0 1455 1805 1665 1721 1904 1819
17 19 3 4 14 89 275 412 552 211 111 2 0 0 0 132 1320 785 232 351 238 54
1 7 22 8 1 1 10 248 42 17 4 0 0 0 0 0 251 202 183 10 0 0
0 2 8 2 5 28 6 1 0 0 0 0 0 0 0 0 0 0 0 0 0 0
0 0 4 5 20 14 1 0 0 0 0 0 0 0 0 0 0 0 0 0 0 0